Regional Weather Roundup
Issued by NWS Wakefield, VA

Home | Current Version | Previous Version | Graphics & Text | Print | Product List | Glossary On
Versions: 1 2 3 4 5 6 7 8 9 10 11 12 13 14 15 16 17 18 19 20 21 22 23 24 25 26 27
000
ASUS41 KAKQ 241615
RWRAKQ

REGIONAL WEATHER ROUNDUP
NATIONAL WEATHER SERVICE WAKEFIELD VA
1200 PM EDT TUE MAY 24 2016

Note: "fair" indicates few or no clouds below 12,000 feet with no
significant weather and/or obstructions to visibility. * = Denotes
station may not report precipitation (e.g., rain,snow,etc.),
thunder or fog.

VAZ042-051-052>054-056-241700-
NORTHERN VIRGINIA

CITY           SKY/WX    TMP DP  RH WIND       PRES   REMARKS
WASH NATIONAL  FAIR      77  56  48 NW10      30.02S
DULLES         FAIR      75  52  44 NW12      30.04R
FORT BELVOIR   FAIR      78  52  40 NW12G17   30.02S
QUANTICO       FAIR      79  53  40 NW14      30.03S
FREDERICKSBRG* FAIR      77  57  50 NW7       30.03R
STAFFORD*      FAIR      76  51  40 NW13      30.08R
WARRENTON      FAIR      79  42  26 NW10      30.05R
CULPEPER*      FAIR      78  53  42 N10       30.06R
MANASSAS*      SUNNY     77  52  41 NW9       30.04R
LEESBURG*      FAIR      79  55  44 NW12G18   30.05S
WINCHESTER     FAIR      75  54  46 NW9       30.06S
FRONT ROYAL*   FAIR      75  55  50 N8        30.06S
LURAY*         FAIR      77  52  41 CALM      30.07S
$$

VAZ048-049-060>072-079>083-241700-
CENTRAL AND SOUTH CENTRAL VIRGINIA

CITY           SKY/WX    TMP DP  RH WIND       PRES   REMARKS
RICHMOND       FAIR      76  54  46 W7        30.05R
CHESTERFIELD*  FAIR      79  52  38 NW8       30.06S
PETERSBURG*    FAIR      78  55  45 W8        30.06S
HANOVER        FAIR      77  55  46 W3        30.06S
TAPPAHANNOCK*  FAIR      77  53  43 NW7G16    30.04S
QUINTON*       FAIR      75  57  54 W8        30.04S
CHARLOTTSVILLE FAIR      79  51  37 VRB6      30.06R
GORDONSVILLE*  FAIR      77  53  42 NW3       30.05S
ORANGE*        FAIR      77  55  47 NE6       30.07S
LOUISA*        FAIR      81  57  44 N5        30.05R
BUMPASS*       FAIR      75  54  48 NW3       30.05S
FARMVILLE*     FAIR      77  56  48 W6        30.06F
CREWE*         FAIR      76  58  52 NW7       30.07S
FORT PICKETT*  NOT AVBL
CHASE CITY*    FAIR      74  55  51 W5        30.09F
CLARKSVILLE*   FAIR      73  57  56 W5        30.10S
SOUTH HILL*    FAIR      74  58  58 W6        30.14S
LAWRENCEVILLE* FAIR      74  59  59 SW6       30.08R
EMPORIA*       FAIR      73  55  53 SW6       30.08S
$$

VAZ088>098-241700-
SOUTHEAST VIRGINIA

CITY           SKY/WX    TMP DP  RH WIND       PRES   REMARKS
NORFOLK        FAIR      74  56  53 W9        30.04R
VIRGINIA BEACH FAIR      79  55  43 W15       30.03R
NORFOLK NAVAL  FAIR      73  57  57 W13       30.05S
WEST POINT*    FAIR      76  55  48 W9        30.05R
SALUDA*        FAIR      74  58  57 W6        30.03R
NEWPORT NEWS   FAIR      75  57  53 W14       30.04S
LANGLEY AFB    MOSUNNY   74  59  58 W10       30.03S
FORT EUSTIS    FAIR      74  64  70 NW7       30.03R
WILLIAMSBURG*  FAIR      79  59  50 W8        30.05R
HR EXEC AP*    FAIR      75  61  60 W9        30.06S
FRANKLIN*      FAIR      75  57  53 W10       30.06S
US460-WAKEFLD  FAIR      76  55  48 VRB5      30.05S
$$

VAZ020-022-025-037-045-241700-
WEST CENTRAL AND SOUTHWEST VIRGINIA

CITY           SKY/WX    TMP DP  RH WIND       PRES   REMARKS
STAUNTON*      FAIR      84  51  32 NW12      30.11S
WAYNESBORO*    FAIR      74  49  40 NW10G16   30.10F
HOT SPRINGS VA FAIR      64  51  64 NW8       30.19F
LYNCHBURG      FAIR      75  52  44 N8        30.11F
DANVILLE       FAIR      74  57  55 SW6       30.12S
SOUTH BOSTON*  FAIR      75  57  53 W7        30.10S
MARTINSVILLE   FAIR      74  53  47 CALM      30.16S
ROANOKE        FAIR      75  54  47 W6        30.15S
BLACKSBURG     FAIR      70  55  57 CALM      30.21R
DUBLIN*        PTSUNNY   72  53  50 N6        30.20R
MARION*        FAIR      71  46  40 CALM      30.22F
HILLSVILLE*    PTSUNNY   66  51  58 N6        30.19S
RICHLANDS*     FAIR      67  43  41 NW3       30.21R
WISE*          PTSUNNY   68  41  37 NW3       30.23R
ABINGDON*      FAIR      71  52  50 NW9       30.20S
$$

MDZ021>025-VAZ099-100-241700-
SOUTHERN MARYLAND AND THE DELMARVA PENINSULA

CITY           SKY/WX    TMP DP  RH WIND       PRES   REMARKS
PATUXENT RIVER MOSUNNY   74  54  49 NW13      30.01R
BAY BRIDGE APT SUNNY     72  54  53 NW6       30.00R
LEONARDTOWN    SUNNY     73  54  49 NW7       30.03S
DOVER          MOSUNNY   70  58  66 W3        29.94S
GEORGETOWN     CLOUDY    69  55  60 VRB5      29.99S
EASTON         MOSUNNY   73  59  60 N9        30.03S
CAMBRIDGE      SUNNY     70  54  56 NW9       30.00R
SALISBURY      PTSUNNY   69  56  62 NW8       29.99R
OCEAN CITY     MOSUNNY   68  56  65 NW12      29.99R
WALLOPS ISLAND FAIR      74  58  57 NW9       29.99R
ACCOMACK*      FAIR      72  54  53 NW12G20   30.02R
$$

NCZ012>017-030>032-241700-
NORTH CENTRAL AND EASTERN NORTH CAROLINA

CITY           SKY/WX    TMP DP  RH WIND       PRES   REMARKS
ROANOKE RAPIDS FAIR      75  55  50 W13       30.08S
RALEIGH        SUNNY     77  56  48 W10       30.12F
ELIZABETH CITY SUNNY     76  58  53 W13       30.06R
AHOSKIE*       SUNNY     73  58  57 CALM      30.07S
EDENTON*       SUNNY     75  69  82 W8        30.08R
CURRITUCK*     NOT AVBL
KILL DEVIL HLS SUNNY     75  56  51 SW10G16   30.05S
MANTEO         SUNNY     73  56  56 W9        30.07R
CAPE HATTERAS  SUNNY     72  57  59 W10G18    30.10R
TARBORO*       FAIR      76  58  53 SW8       30.10S
GOLDSBORO      SUNNY     77  56  47 W16       30.11R
WASHINGTON     SUNNY     75  57  53 W8        30.10R
GREENVILLE     SUNNY     75  57  53 W6        30.11S
NEW BERN       SUNNY     75  55  49 NW8       30.12S
WILMINGTON     SUNNY     75  54  47 W9        30.14S
$$

VAZ048-241700-
ELSEWHERE

CITY           SKY/WX    TMP DP  RH WIND       PRES   REMARKS
HARRISBURG PA  MOSUNNY   77  49  37 W7        29.98S
BALTIMORE      PTSUNNY   77  52  41 W7        30.00R
ANNAPOLIS      SUNNY     74  50  42 NW10      30.00R
ANDREWS AFB    FAIR      75  53  44 NW8       30.01R
PHILADELPHIA   PTSUNNY   72  52  49 S8        29.96S
HENDERSON NC   SUNNY     72  55  54 SW9       30.11S
GREENSBORO     MOSUNNY   75  50  41 VRB5      30.13F
ROCKY MOUNT    SUNNY     76  57  51 W9        30.10S
$$

VAZ100-241700-
MARINE

STATION/POSITION TIME  TEMP    WIND        PRES    WAVE   SWELL
                       AIR SEA DIR/SP/G            HT/PER HT/PER
                 (UTC) (F)     (DEG/KT/KT) (MB)    (FT/S) (FT/S)
BRANDYWINE LGT   1500   61     310/  9/ 10 1015.0R
CAPE MAY NJ      1500   62 63  300/  8/  9 1014.7R
LEWES DE         1500   62 59  340/  8/ 10 1015.2R
15NM E FENWICK I 1550   59 56              1015.1R   3/ 9
OCEAN-CITY-INLET 1500   66 59  340/ 11/ 12 1014.3R
WACHAPREAGUE VA  1500   72 63  270/  5/ 12 1015.5R
THOMAS POINT MD  1600   71 61  360/  7/  8 1017.1R
GOOSES REEF MD   1600   68 63   10/  4/  6 1017.1R   1
COVE POINT MD    1500   68     350/ 14/ 16 1016.3R
SOLOMONS ISLAND  1500   70 62  290/  6/ 12   N/A
BISHOPS HEAD MD  1500   67 65  290/ 12/ 13 1015.6R
PINEY POINT MD   1500          310/ 15/ 16   N/A
POTOMAC MD       1600   65 62  300/ 12/ 14 1015.6R   1/ 2
CAMBRIDGE MD     1500   68 63  300/  8/ 10 1014.7S
LEWISETTA VA     1500   70 63  320/ 12/ 18 1016.1R
RAPPAHANNOCK LGT 1500          240/  7/  8 1017.0R
STINGRAY PT      1600   69 65  280/  8/ 10 1017.0R   1
YORK RVR RNG VA  1500   68     260/ 11/ 13 1016.1R
YORKTOWN VA      1500   71 64  270/  9/ 12 1016.4S
JAMESTOWN VA     1600   69 67  290/  6/  8   N/A     0
DOMINION TERM VA 1500   67     310/  3/  4 1017.2R
KIPTOPEKE VA     1500      63  270/  9/ 10   N/A
CHES BAY BRIDGE  1500   65 63  240/ 13/ 14 1016.7R
CAPE HENRY VA    1500   69     260/  8/ 11   N/A
CHESAPEAKE LGHT  1500   64     260/  9/ 10 1017.4R
WILLOUBY STN VA  1500   65     230/ 10/ 11 1017.9R
CAPE HENRY BUOY  1512      60                N/A     3/10   2/11
1ST LANDING BUOY 1600   66 64  260/ 10/ 12 1017.0R   2/ 3
CAPE CHARLES BUO 1526      60                N/A     3/10   3/10
OFFSHORE WE BUOY 1521      58                N/A     3/10   3/10
64NM E OF VA BCH 1550   59 56  240/ 12/ 14 1017.0R   4/ 9   3/ 9
DUCK PIER NC     1500   66 61  240/ 12/ 16 1016.9R
44100 DUCK FRF   1524      58                N/A     3/11   2/11
44056 DUCK FRF   1511      62                N/A     3/ 8   2/11
OREGON INLET NC  1500   67 63  220/  9/ 10 1017.8S
HATTERAS NC      1500   67 66  270/ 14/ 18 1018.5S
DIAMOND SHLS NC  1550   67 79  270/ 12/ 16 1019.4R   4C1F1C2F2C3F3C4F4C5F5C6F6C7F7C8M1C9!



USA.gov is the U.S. government's official web portal to all federal, state and local government web resources and services.